Regional Weather Roundup
Issued by NWS Cleveland, OH

Home | Current Version | Previous Version | Text Only | Print | Product List | Glossary Off
Versions: 1 2 3 4 5 6 7 8 9 10 11 12 13 14 15 16 17 18 19 20 21 22 23 24 25 26 27 28 29 30 31 32 33 34 35 36 37 38 39 40 41 42 43 44 45 46 47 48 49 50

000
ASUS41 KCLE 161600
RWRCLE
OHIO REGIONAL WEATHER ROUNDUP
NATIONAL WEATHER SERVICE WILMINGTON, OH
1200 PM EDT MON OCT 16 2017

NOTE: "FAIR" INDICATES FEW OR NO CLOUDS BELOW 12,000 FEET WITH NO
SIGNIFICANT WEATHER AND/OR OBSTRUCTIONS TO VISIBILITY.

OHZ001>008-015>018-024>027-034-035-043-044-161700-
   NORTHWEST OHIO

CITY           SKY/WX    TMP DP  RH WIND       PRES   REMARKS
DEFIANCE       PTSUNNY   52  42  69 NW7       30.32S
FINDLAY        CLOUDY    52  41  66 N7        30.31R
TOLEDO EXPRESS FAIR      54  37  52 W5        30.31R
TOLEDO EXEC    FAIR      54  32  43 NW7       30.32R
LIMA           PTSUNNY   52  42  69 NW9       30.31S
$$

OHZ009>014-019>023-028>033-038-089-161700-
   NORTHEAST OHIO

CITY           SKY/WX    TMP DP  RH WIND       PRES   REMARKS
CLE-HOPKINS    FAIR      55  38  52 N12       30.30S
CLE-LAKEFRONT  FAIR      54  38  54 NW12      30.27S
CUY CO. ARPT   PTSUNNY   54  41  62 NW8       30.28R
LORAIN-ELYRIA  FAIR      54  32  43 N9        30.29S
ASHTABULA      LGT RAIN  49  40  71 N9G17     30.26R
AKRON-CANTON   FAIR      54  37  52 N12G20    30.26R
WOOSTER        NOT AVBL
MANSFIELD      PTSUNNY   52  38  58 NW10G16   30.29S
YOUNGSTOWN     PTSUNNY   55  39  54 NW18      30.23S
$$

OHZ042-051>053-060>062-070>072-077>081-161700-
  SOUTHWEST OHIO

CITY           SKY/WX    TMP DP  RH WIND       PRES   REMARKS
CINC-COVINGTON PTSUNNY   57  45  64 NW6       30.32S
CINC-LUNKEN    PTSUNNY   58  45  62 N10       30.34S
HAMILTON       PTSUNNY   56  45  66 NW10      30.34S
DAYTON         NOT AVBL
WRIGHT-PAT AFB PTSUNNY   55  43  62 N9        30.32R
DAYTON GENERAL PTSUNNY   55  43  63 VRB6      30.32R
WILMINGTON     FAIR      54  44  69 NW9       30.32R
$$

OHZ036-037-039>041-045>050-054>059-063>069-073>076-082>088-161700-
  CENTRAL AND SOUTHEAST OHIO

CITY           SKY/WX    TMP DP  RH WIND       PRES   REMARKS
COLUMBUS       FAIR      56  42  59 NW12      30.30R
OSU AIRPORT    PTSUNNY   54  43  66 N10G18    30.30S
BOLTON FIELD   MOSUNNY   54  43  66 NW13      30.31S
RICKENBACK AFB NOT AVBL
NEWARK         FAIR      57  38  48 NW10      30.29R
MARION         FAIR      52  39  61 NW13      30.31S
LANCASTER      FAIR      57  41  55 N8        30.30R
ZANESVILLE     PTSUNNY   57  41  55 N9        30.28S
NEW PHILLY     PTSUNNY   55  39  54 N10G21    30.27S
$$




USA.gov is the U.S. government's official web portal to all federal, state and local government web resources and services.